Powrót do katalogu

STARLINK-4678

AktywnyŁącznośćVLEO
NORAD 53780·PAYLOAD·🇺🇸 United States

Wystrzelony Sep 11, 2022 z Cape Canaveral Space Force Station

Loading…

Następne Przeloty (najbliższe 24 godziny)

TLE

ŚwieżeSource: CelesTrak SupGP

Epoka: Sep 14, 2026, 20:45 UTC

1 53780C 22111H   26257.86506944 -.00051607  00000+0 -15250-2 0  2576
2 53780  53.1588 139.9969 0001281  91.6029 354.1043 15.34410979    14

Śledź STARLINK-4678 w czasie rzeczywistym z AllMySat

Download on the App Store